Maersk Iowa — KABL — position and weather

sailwx.info

Track history (hours):
 
Tides and Currents Weather Stations Pressure Air Temp Water Temp Dewpoint Dewpoint Depression Visibility Wind Speed Wind Dir Waves Ship Positions

Maersk Iowa

Owner: FARRELL LINES INC, Norfolk, VA. More information available from US FCC via Universal Licensing System and Coast Guard Vessel Documentation Center.

Last reported at 2014-Nov-22 18:00 UTC. Time now 2014-Nov-23 06:01 UTC.
Position N 42°12' W 065°12'.

Length 292 m; draft 11 m.

Type: Ship (hazmat cat A). MMSI: 367606000.

Wind from 240 at 24 knots

Barometer 1024.0 mb
Air temperature 7.0 ° C
Visibility: greater than 10.8 NM
Dewpoint -0.0 ° C
Water temperature 11.0 ° C

Date/timePositionNaut miles runAvg speedWind from/ knotsBaromVisibWave heightAir tempDewpointWater temp
2014-Nov-22 18:00N 42°12' W 065°12'90518.8 240 / 241024.010.8 7.0-0.011.0
2014-Nov-20 18:00N 47°48' W 045°24'   270 / 271022.910.8 10.0 5.6 8.0
2014-Nov-16 10:33N 58°44' W 004°13'1817.8
2014-Nov-16 09:34N 58°44' W 003°39'1918.8
2014-Nov-16 08:33N 58°43' W 003°02'1616.1
2014-Nov-16 07:33N 58°29' W 002°46'4915.6
2014-Nov-16 04:25N 57°57' W 001°35'1416.0
2014-Nov-16 03:33N 57°49' W 001°14'1616.0
2014-Nov-16 02:33N 57°39' W 000°51'32216.1
2014-Nov-15 06:31N 54°27' E 006°54'1617.1
2014-Nov-15 05:34N 54°18' E 007°16'1616.4
2014-Nov-15 04:33N 54°05' E 007°35'1615.7
2014-Nov-15 03:33N 53°52' E 007°50'1413.7
2014-Nov-15 02:33N 53°46' E 008°11'1413.9
2014-Nov-15 01:33N 53°37' E 008°29'2 2.2
2014-Nov-15 00:32N 53°36' E 008°31'0 0.0
2014-Nov-14 23:32N 53°36' E 008°31'0 0.0
2014-Nov-14 22:32N 53°36' E 008°31'0 0.0
2014-Nov-14 21:32N 53°36' E 008°31'0 0.0
2014-Nov-14 20:32N 53°36' E 008°31'0 0.0
2014-Nov-14 19:32N 53°36' E 008°31'0 0.0
2014-Nov-14 18:32N 53°36' E 008°31'0 0.0
2014-Nov-14 17:32N 53°36' E 008°31'0 0.0
2014-Nov-14 16:32N 53°36' E 008°31'0 0.0
2014-Nov-14 15:32N 53°36' E 008°31'0 0.0
2014-Nov-14 14:32N 53°36' E 008°31'0 0.0
2014-Nov-14 12:32N 53°36' E 008°31'0 0.0
2014-Nov-14 11:32N 53°36' E 008°31'0 0.0
2014-Nov-14 10:32N 53°36' E 008°31'0 0.0
2014-Nov-14 09:32N 53°36' E 008°31'0 0.0
2014-Nov-14 08:32N 53°36' E 008°31'0 0.0
2014-Nov-14 07:32N 53°36' E 008°31'0 0.0
2014-Nov-14 06:32N 53°36' E 008°31'0 0.0
2014-Nov-14 05:32N 53°36' E 008°31'0 0.0
2014-Nov-14 04:32N 53°36' E 008°31'0 0.0
2014-Nov-14 03:32N 53°36' E 008°31'5 5.0
2014-Nov-14 02:34N 53°39' E 008°25'1211.9
2014-Nov-14 01:33N 53°47' E 008°10'1212.0
2014-Nov-14 00:33N 53°52' E 007°51'8 8.1
2014-Nov-13 23:33N 53°54' E 007°38'8 8.3
2014-Nov-13 22:33N 53°53' E 007°24'8 8.2
2014-Nov-13 21:33N 53°51' E 007°10'8 8.0
2014-Nov-13 20:33N 53°50' E 006°57'6 5.9
2014-Nov-13 19:33N 53°49' E 006°47'5 5.4
2014-Nov-13 18:33N 53°48' E 006°38'5 5.4
2014-Nov-13 17:33N 53°47' E 006°29'6 5.7
2014-Nov-13 16:33N 53°46' E 006°20'6 6.1
2014-Nov-13 15:31N 53°44' E 006°10'6 6.4
2014-Nov-13 14:33N 53°42' E 006°00'7 6.9
2014-Nov-13 13:33N 53°39' E 005°49'7 7.4
2014-Nov-13 12:33N 53°37' E 005°37'8 8.1
2014-Nov-13 11:33N 53°35' E 005°24'8 8.2
2014-Nov-13 10:33N 53°32' E 005°11'8 8.3
2014-Nov-13 09:33N 53°28' E 004°59'9 8.8
2014-Nov-13 08:33N 53°24' E 004°46'9 8.9
2014-Nov-13 07:33N 53°17' E 004°37'10 9.8
2014-Nov-13 06:33N 53°08' E 004°29'10 9.5
2014-Nov-13 05:33N 52°60' E 004°22'9 8.9
2014-Nov-13 04:33N 52°52' E 004°15'8 8.4
2014-Nov-13 03:33N 52°44' E 004°08'8 8.1
2014-Nov-13 02:33N 52°38' E 004°01'8 7.8
2014-Nov-13 01:33N 52°31' E 003°55'8 7.7
2014-Nov-13 00:33N 52°23' E 003°53'8 7.5
2014-Nov-12 23:33N 52°16' E 003°52'8 7.9
2014-Nov-12 22:33N 52°08' E 003°55'9 8.7
2014-Nov-12 21:33N 52°00' E 004°01'3 2.8
2014-Nov-12 20:31N 51°57' E 004°03'0 0.0
2014-Nov-12 19:31N 51°57' E 004°03'0 0.0
2014-Nov-12 18:34N 51°57' E 004°03'  
Track history (hours):
 
Tides and Currents Weather Stations Pressure Air Temp Water Temp Dewpoint Dewpoint Depression Visibility Wind Speed Wind Dir Waves Ship Positions

Maersk Iowa

Owner: FARRELL LINES INC, Norfolk, VA. More information available from US FCC via Universal Licensing System and Coast Guard Vessel Documentation Center.

Last reported at 2014-Nov-22 18:00 UTC. Time now 2014-Nov-23 06:01 UTC.
Position N 42°12' W 065°12'.

Length 292 m; draft 11 m.

Type: Ship (hazmat cat A). MMSI: 367606000.

Wind from 240 at 24 knots

Barometer 1024.0 mb
Air temperature 7.0 ° C
Visibility: greater than 10.8 NM
Dewpoint -0.0 ° C
Water temperature 11.0 ° C

Date/timePositionNaut miles runAvg speedWind from/ knotsBaromVisibWave heightAir tempDewpointWater temp
2014-Nov-22 18:00N 42°12' W 065°12'90518.8 240 / 241024.010.8 7.0-0.011.0
2014-Nov-20 18:00N 47°48' W 045°24'   270 / 271022.910.8 10.0 5.6 8.0
2014-Nov-16 10:33N 58°44' W 004°13'1817.8
2014-Nov-16 09:34N 58°44' W 003°39'1918.8
2014-Nov-16 08:33N 58°43' W 003°02'1616.1
2014-Nov-16 07:33N 58°29' W 002°46'4915.6
2014-Nov-16 04:25N 57°57' W 001°35'1416.0
2014-Nov-16 03:33N 57°49' W 001°14'1616.0
2014-Nov-16 02:33N 57°39' W 000°51'32216.1
2014-Nov-15 06:31N 54°27' E 006°54'1617.1
2014-Nov-15 05:34N 54°18' E 007°16'1616.4
2014-Nov-15 04:33N 54°05' E 007°35'1615.7
2014-Nov-15 03:33N 53°52' E 007°50'1413.7
2014-Nov-15 02:33N 53°46' E 008°11'1413.9
2014-Nov-15 01:33N 53°37' E 008°29'2 2.2
2014-Nov-15 00:32N 53°36' E 008°31'0 0.0
2014-Nov-14 23:32N 53°36' E 008°31'0 0.0
2014-Nov-14 22:32N 53°36' E 008°31'0 0.0
2014-Nov-14 21:32N 53°36' E 008°31'0 0.0
2014-Nov-14 20:32N 53°36' E 008°31'0 0.0
2014-Nov-14 19:32N 53°36' E 008°31'0 0.0
2014-Nov-14 18:32N 53°36' E 008°31'0 0.0
2014-Nov-14 17:32N 53°36' E 008°31'0 0.0
2014-Nov-14 16:32N 53°36' E 008°31'0 0.0
2014-Nov-14 15:32N 53°36' E 008°31'0 0.0
2014-Nov-14 14:32N 53°36' E 008°31'0 0.0
2014-Nov-14 12:32N 53°36' E 008°31'0 0.0
2014-Nov-14 11:32N 53°36' E 008°31'0 0.0
2014-Nov-14 10:32N 53°36' E 008°31'0 0.0
2014-Nov-14 09:32N 53°36' E 008°31'0 0.0
2014-Nov-14 08:32N 53°36' E 008°31'0 0.0
2014-Nov-14 07:32N 53°36' E 008°31'0 0.0
2014-Nov-14 06:32N 53°36' E 008°31'0 0.0
2014-Nov-14 05:32N 53°36' E 008°31'0 0.0
2014-Nov-14 04:32N 53°36' E 008°31'0 0.0
2014-Nov-14 03:32N 53°36' E 008°31'5 5.0
2014-Nov-14 02:34N 53°39' E 008°25'1211.9
2014-Nov-14 01:33N 53°47' E 008°10'1212.0
2014-Nov-14 00:33N 53°52' E 007°51'8 8.1
2014-Nov-13 23:33N 53°54' E 007°38'8 8.3
2014-Nov-13 22:33N 53°53' E 007°24'8 8.2
2014-Nov-13 21:33N 53°51' E 007°10'8 8.0
2014-Nov-13 20:33N 53°50' E 006°57'6 5.9
2014-Nov-13 19:33N 53°49' E 006°47'5 5.4
2014-Nov-13 18:33N 53°48' E 006°38'5 5.4
2014-Nov-13 17:33N 53°47' E 006°29'6 5.7
2014-Nov-13 16:33N 53°46' E 006°20'6 6.1
2014-Nov-13 15:31N 53°44' E 006°10'6 6.4
2014-Nov-13 14:33N 53°42' E 006°00'7 6.9
2014-Nov-13 13:33N 53°39' E 005°49'7 7.4
2014-Nov-13 12:33N 53°37' E 005°37'8 8.1
2014-Nov-13 11:33N 53°35' E 005°24'8 8.2
2014-Nov-13 10:33N 53°32' E 005°11'8 8.3
2014-Nov-13 09:33N 53°28' E 004°59'9 8.8
2014-Nov-13 08:33N 53°24' E 004°46'9 8.9
2014-Nov-13 07:33N 53°17' E 004°37'10 9.8
2014-Nov-13 06:33N 53°08' E 004°29'10 9.5
2014-Nov-13 05:33N 52°60' E 004°22'9 8.9
2014-Nov-13 04:33N 52°52' E 004°15'8 8.4
2014-Nov-13 03:33N 52°44' E 004°08'8 8.1
2014-Nov-13 02:33N 52°38' E 004°01'8 7.8
2014-Nov-13 01:33N 52°31' E 003°55'8 7.7
2014-Nov-13 00:33N 52°23' E 003°53'8 7.5
2014-Nov-12 23:33N 52°16' E 003°52'8 7.9
2014-Nov-12 22:33N 52°08' E 003°55'9 8.7
2014-Nov-12 21:33N 52°00' E 004°01'3 2.8
2014-Nov-12 20:31N 51°57' E 004°03'0 0.0
2014-Nov-12 19:31N 51°57' E 004°03'0 0.0
2014-Nov-12 18:34N 51°57' E 004°03'  

Dump ship's entire track history